Location: Unspecified
(48.8656°N, 0.0000°E)
Time: 08:02:38
(UTC+00:00)

Vanguard 1 - Pass Details

Date: 25 June 2019
Orbit: 653 x 3830 km, 34.3° (Epoch: 20 July)

Event Time Altitude Azimuth Distance (km) Brightness Sun altitude
Rises 04:27:05 0° 256° (WSW) 7,261 13.9 3.1°
Reaches altitude 10° 04:32:57 10° 250° (WSW) 5,791 13.4 4.0°
Maximum altitude 04:46:52 39° 191° (S) 2,705 12.1 5.9°
Drops below altitude 10° 04:55:00 10° 126° (SE) 3,403 13.3 7.1°
Sets 04:57:31 0° 117° (ESE) 4,073 13.8 7.5°
